ERS-2 (23560 NORAD) Tracking and Keplerian Element Data

This shows tracking and keplerian element data for the satellite.

Feedback or suggestion? Click here.




ElementValue
Catalog23560
NameERS-2
Epoch Orbit23507
Epoch Day195.76756507
Epoch Year2018
RAAN246.0445
Inclination98.5338
Eccentricity0.0004655
Argument of Perigee62.9616
Mean Anonmoly297.2091
Mean Motion15.2184765
Decay Rate8.87E-06
L11 23560U 95021A 18195.76756507 .00000887 00000-0 42926-4 0 9990
L22 23560 98.5338 246.0445 0004655 62.9616 297.2091 15.21847650235075

Live tracking and technical data element details for ERS-2 (NORAD 23560). ERS-2 can be tracked NOW for your location showing map with azimuth and elevation plus other details from your city location.

Track the satellite on the map from your city or location and see movement details for azimuth, elevation, latitude, longitude, range, height, and movement on the map or in text.







IsCatalogInMostPopularTable: catalog: 23560, numindb: 19
Update: records affected: 1



GetName: 23560 ERS-2

Hit Count: updated at: Sun, 15 Jul 2018 23:19:21 GMT